MPEC 2005-F09 : 2005 FA

The following Minor Planet Electronic Circular may be linked-to from your own Web pages, but must not otherwise be redistributed electronically.


Read MPEC 2005-F08 Read MPEC 2005-F10


M.P.E.C. 2005-F09                                Issued 2005 Mar. 16, 19:38 UT

     The Minor Planet Electronic Circulars contain information on unusual
         minor planets and routine data on comets.  They are published
   on behalf of Commission 20 of the International Astronomical Union by the
          Minor Planet Center, Smithsonian Astrophysical Observatory,
                          Cambridge, MA 02138, U.S.A.

                  Supported in part by the Brinson Foundation
             Prepared using the Tamkin Foundation Computer Network

                              MPC@CFA.HARVARD.EDU
          URL http://cfa-www.harvard.edu/iau/mpc.html  ISSN 1523-6714

                                    2005 FA

Observations:
     K05F00A* C2005 03 16.24854 10 26 45.06 +11 26 04.2          17.9 R EF009703
     K05F00A  C2005 03 16.25773 10 26 42.04 +11 28 20.1          17.9 R EF009703
     K05F00A  C2005 03 16.26692 10 26 39.05 +11 30 37.5          18.0 R EF009703
     K05F00A  C2005 03 16.27613 10 26 36.12 +11 32 54.1          17.3 R EF009703
     K05F00A  C2005 03 16.31958 10 26 21.56 +11 43 50.7          17.2 R EF009703
     K05F00A  C2005 03 16.32075 10 26 21.09 +11 44 07.6          15.6 R EF009703
     K05F00A  C2005 03 16.32191 10 26 20.80 +11 44 26.3          18.0 R EF009703
     K05F00A  C2005 03 16.32304 10 26 20.46 +11 44 42.6          17.8 R EF009703
     K05F00A  C2005 03 16.61135 10 25 05.64 +13 13 25.2          18.1 R EF009474
     K05F00A  C2005 03 16.61193 10 25 05.43 +13 13 36.2          18.0 R EF009474
     K05F00A  C2005 03 16.61251 10 25 05.23 +13 13 47.0          17.5 R EF009474
     K05F00A  C2005 03 16.62236 10 25 01.82 +13 16 50.7          17.5 R EF009474
     K05F00A  C2005 03 16.62289 10 25 01.67 +13 17 00.4          17.8 R EF009474
     K05F00A  C2005 03 16.62352 10 25 01.43 +13 17 12.7          17.8 R EF009474
     K05F00A  C2005 03 16.78825 10 24 43.18 +14 03 33.3          18.1 V EF009198
     K05F00A  C2005 03 16.79419 10 24 40.96 +14 05 39.6          18.1 V EF009198
     K05F00A  C2005 03 16.79563 10 24 40.41 +14 06 10.4          18.2 V EF009198
     K05F00A  C2005 03 16.79599 10 24 40.27 +14 06 18.4          18.3 V EF009198
     K05F00A  C2005 03 16.79689 10 24 39.93 +14 06 37.6          18.2 V EF009198
     K05F00A  C2005 03 16.79743 10 24 39.73 +14 06 49.1          18.2 V EF009198
     K05F00A  C2005 03 16.79868 10 24 39.26 +14 07 16.7          18.2 V EF009198

Observer details:
198 Wildberg.  Observer R. Apitzsch.  0.35-m f/4.2 reflector + CCD.
474 Mount John Observatory, Lake Tekapo.  Observer A. C. Gilmore.  Measurer
    P. M. Kilmartin.  1.0-m f/7.7 reflector + CCD.
703 Catalina Sky Survey.  Observer R. Hill.  Measurers E. C. Beshore,
    C. M. Casey, E. J. Christensen, G. J. Garradd, R. E. Hill, S. M. Larson,
    R. H. McNaught.  0.68-m Schmidt + CCD.

Orbital elements:
2005 FA
Epoch 2005 Mar. 11.0 TT = JDT 2453440.5                 MPC
M 345.29564              (2000.0)            P               Q
n   0.30939892     Peri.   62.30282     -0.54653307     +0.83740928
a   2.1649948      Node   174.55258     -0.79159142     -0.51391537
e   0.6242364      Incl.    4.15437     -0.27328487     -0.18610934
P   3.19           H   25.0           G   0.15
From 21 observations 2005 Mar. 16-16.

Ephemeris:
2005 FA                  a,e,i = 2.16, 0.62, 4                   q = 0.8135
Date    TT    R. A. (2000) Decl.     Delta      r     Elong.  Phase     V
2005 03 11    10 33.75   +03 25.4    0.0723   1.064   167.2    11.9    20.2
2005 03 12    10 33.11   +04 04.2    0.0635   1.055   166.1    13.0    19.9
2005 03 13    10 32.31   +04 55.3    0.0548   1.047   164.9    14.3    19.6
2005 03 14    10 31.26   +06 05.6    0.0461   1.038   163.5    15.8    19.3
2005 03 15    10 29.80   +07 48.1    0.0374   1.030   161.8    17.6    18.9
2005 03 16    10 27.52   +10 31.3    0.0289   1.022   159.3    20.1    18.4
2005 03 17    10 23.34   +15 29.1    0.0205   1.014   155.1    24.5    17.7
2005 03 18    10 12.76   +27 02.2    0.0124   1.006   145.0    34.6    16.9
2005 03 19    08 51.84   +65 51.1    0.00640  0.997   107.2    72.4    16.6
2005 03 20    23 18.19   +43 09.7    0.00881  0.990    44.3   135.3    21.0
2005 03 21    22 54.37   +22 25.9    0.0163   0.982    27.6   151.9    24.8

Timothy B. Spahr             (C) Copyright 2005 MPC           M.P.E.C. 2005-F09

Read MPEC 2005-F08 Read MPEC 2005-F10


Our Web policy. Index to the CBAT/MPC/ICQ pages.

MPC